Theta_e
324 323 324 324 324 324 323 323 322 320 321 322 319 320 321 321 320 319 320 320 320 321 321 321 320 318 318 317 317 318 316 314 315 313 314 315 314 314 313 312 314 312 310 311 310 310 311 311 310 309 306 306 308 309 309 309 309 310 310 311 310 310 309 309 310 310 309 308 308 308 308 309 309 309 310 309 309 308 308 309 309 309 309 310 310
323 323 323 322 323 324 324 324 324 324 323 323 321 321 321 321 321 320 320 320 320 320 321 321 321 320 319 318 318 318 318 316 315 314 313 314 314 314 314 313 314 313 311 311 310 309 311 311 310 311 308 305 306 308 309 308 308 309 309 309 308 308 308 307 308 309 309 309 309 309 309 308 308 308 308 308 308 308 308 309 309 309 309 309 309
323 323 324 323 324 325 325 325 325 324 323 323 323 322 322 322 321 320 320 320 320 320 320 319 320 320 320 320 319 319 319 318 317 315 314 314 314 314 314 313 313 313 312 312 310 309 309 309 310 311 310 306 306 308 308 308 309 309 309 308 307 307 307 308 308 308 308 308 308 307 307 306 307 306 307 307 307 307 307 307 308 308 309 308 309
323 323 323 323 324 325 325 324 324 323 322 322 322 322 322 322 322 321 320 320 320 320 319 319 320 320 320 320 320 319 319 319 318 317 315 314 314 314 315 314 313 313 313 312 311 310 310 309 309 311 310 308 308 308 308 309 309 309 308 307 307 307 306 306 306 306 307 307 306 306 306 306 306 306 306 306 307 307 307 307 308 308 308 308 308
324 324 323 323 323 324 323 322 323 323 322 322 321 321 321 322 322 321 321 321 321 321 320 320 320 320 320 320 320 319 320 319 319 318 318 316 315 315 315 315 313 312 313 313 312 311 312 310 310 311 311 310 309 308 308 309 309 307 306 306 306 306 305 306 306 306 306 306 305 305 305 305 305 305 305 306 306 307 306 307 307 307 308 308 308
323 324 323 322 323 323 323 322 323 323 322 321 321 320 321 321 321 321 321 321 322 322 321 321 320 321 321 321 321 320 320 320 319 319 318 317 316 315 315 315 314 312 312 313 312 311 312 311 310 310 310 309 308 308 308 308 307 306 304 304 304 304 304 304 304 304 304 303 303 303 304 304 304 304 305 305 306 306 306 307 307 307 307 307 308
322 323 324 323 323 324 324 324 324 325 324 322 321 321 320 320 320 320 319 319 321 321 321 322 321 320 319 320 321 321 320 320 320 319 318 317 316 316 315 315 315 314 312 313 312 311 311 311 310 310 309 308 308 307 307 307 306 303 301 301 302 301 301 301 301 301 302 302 302 302 302 303 303 303 303 303 304 305 305 305 305 305 305 306 306
320 322 323 322 322 322 323 323 323 324 324 324 323 323 322 321 321 320 319 318 319 320 320 321 320 318 317 318 320 320 320 320 320 320 319 318 317 316 316 315 315 314 313 313 312 311 311 310 309 308 308 307 307 306 306 306 304 300 297 296 297 296 296 298 299 300 300 299 299 299 299 299 300 300 301 301 302 303 303 303 304 304 304 305 305
315 316 317 317 317 317 316 316 316 317 319 320 322 323 322 322 322 321 321 321 320 320 319 319 319 318 317 318 320 320 319 319 320 320 319 319 318 317 316 315 315 314 313 312 312 311 311 310 309 308 307 307 306 305 305 304 302 299 296 295 294 294 294 296 296 297 297 297 296 297 297 297 298 299 299 300 301 301 301 301 302 303 303 303 304
313 313 312 312 312 312 312 312 313 314 315 316 318 320 320 321 321 321 321 320 321 321 321 321 321 320 320 320 321 320 320 320 320 319 319 320 319 318 317 316 315 314 313 312 312 311 310 310 309 307 306 306 305 304 304 304 302 299 298 297 296 297 297 297 297 297 297 297 297 297 298 298 298 298 299 299 299 299 299 300 301 301 301 302 303
310 310 309 309 309 310 311 310 311 312 312 313 314 315 316 317 318 320 321 320 320 321 321 322 322 322 322 322 321 321 320 320 319 319 320 320 319 319 318 317 315 314 313 312 312 311 310 309 308 307 306 305 304 304 304 303 302 300 299 298 299 299 299 298 298 298 298 298 298 298 298 298 298 298 299 299 299 299 300 300 299 300 300 301 301
308 308 308 307 307 308 308 308 308 309 310 310 310 311 312 313 314 316 317 317 318 320 321 322 321 321 322 322 321 321 321 321 320 320 320 320 320 319 318 317 316 314 313 312 312 311 309 308 307 306 305 305 305 304 304 303 302 300 299 300 300 299 299 299 298 298 298 298 298 298 298 298 298 299 299 299 299 299 300 299 299 299 300 300 299
308 308 307 307 307 307 307 307 307 308 309 309 309 309 310 310 310 311 311 312 314 316 317 319 320 321 322 322 321 321 321 321 321 321 321 320 320 319 318 318 316 314 313 312 311 310 308 307 307 305 305 305 305 304 303 302 301 300 300 300 300 299 299 298 298 298 298 298 298 298 299 298 298 299 299 299 299 299 299 299 299 299 300 300 299
308 308 307 307 307 307 307 307 307 308 308 308 308 308 308 308 309 309 309 310 311 312 312 314 316 318 319 320 320 320 320 320 321 321 321 321 320 319 318 317 316 314 313 312 311 310 308 307 306 305 305 305 304 303 303 302 302 301 301 300 300 299 298 297 297 297 297 297 298 298 298 298 298 299 299 299 299 299 299 299 299 299 300 300 299
307 307 307 307 307 307 307 307 308 308 308 307 307 307 307 308 308 309 309 310 310 311 311 311 312 313 315 316 317 318 319 319 319 320 320 320 319 317 316 315 314 313 312 311 310 308 307 306 305 305 304 303 303 302 302 301 301 301 300 299 299 298 298 297 297 296 296 297 297 297 298 297 297 298 298 298 299 299 299 299 299 299 298 298 298
307 307 307 307 307 307 307 307 308 309 308 308 307 307 307 307 308 308 308 309 309 310 311 311 311 312 313 314 315 316 317 318 318 319 319 319 318 315 313 313 312 311 310 309 308 306 305 305 304 303 303 302 302 301 301 301 301 301 300 299 298 298 297 297 297 297 297 297 297 297 297 296 296 297 296 297 297 297 297 297 297 297 297 296 296
307 307 307 307 307 307 307 307 308 308 308 308 308 307 307 307 308 308 308 308 308 309 309 310 311 312 312 313 314 316 317 317 318 319 318 318 316 313 312 311 310 308 307 306 306 305 304 304 303 303 302 302 302 302 302 302 301 300 299 298 298 297 297 297 297 297 296 296 296 296 296 296 296 296 296 296 295 295 295 294 295 296 295 295 295
307 307 307 307 307 306 306 306 307 307 308 308 308 307 307 307 307 307 307 307 307 307 308 308 310 311 312 312 313 315 317 318 318 318 317 315 313 312 310 309 307 306 305 304 304 304 303 303 302 302 302 302 302 302 302 301 300 298 298 297 296 296 296 296 295 295 295 295 295 295 294 294 294 294 294 294 294 293 292 292 292 293 294 294 294
306 306 307 307 307 306 306 306 306 307 307 307 307 307 307 307 307 306 306 307 307 307 308 308 310 311 311 312 314 315 316 317 317 317 315 312 310 309 308 306 305 303 303 303 303 303 302 302 302 302 302 301 301 301 300 299 297 297 296 295 295 295 294 294 293 293 292 292 292 292 291 291 291 291 291 291 291 291 291 291 292 292 293 294 294
305 305 306 306 307 307 307 306 306 306 306 306 307 307 307 308 308 307 307 307 307 308 309 310 311 311 311 312 313 314 315 315 313 313 312 310 307 306 305 305 304 303 302 302 301 301 300 300 299 299 299 299 299 298 297 296 296 295 295 294 294 293 293 292 292 291 291 291 290 290 290 290 290 290 290 290 290 290 291 291 292 292 293 293 294
305 305 305 306 306 307 307 306 306 306 306 306 307 307 308 308 308 308 308 307 308 309 310 310 310 310 310 311 312 312 312 312 310 308 308 308 306 305 305 303 302 301 300 300 299 298 297 297 296 296 296 297 297 296 296 296 295 295 294 293 293 292 292 291 291 291 291 291 290 290 290 290 290 290 290 291 291 291 291 291 291 292 292 293 294
305 305 305 305 305 306 306 306 306 306 305 306 306 307 308 308 308 308 307 307 309 310 310 309 308 308 308 308 309 309 309 309 307 305 304 304 304 303 303 301 300 300 299 299 298 297 295 295 295 296 296 296 296 296 295 295 294 293 293 293 292 292 292 291 291 291 291 291 291 290 290 291 291 291 291 291 291 291 291 291 291 291 292 292 293
304 304 304 304 304 305 305 305 305 305 305 305 306 306 306 307 307 307 307 308 310 310 309 308 306 306 305 306 307 306 304 304 304 303 302 302 301 301 300 299 298 298 297 296 295 294 294 295 296 296 296 296 296 295 294 293 293 293 293 292 292 292 292 292 292 291 291 291 291 291 291 291 291 291 291 291 291 292 292 292 292 292 292 292 292
304 304 304 304 304 304 304 304 304 304 304 304 305 305 305 306 307 307 308 310 311 309 308 307 306 305 304 304 303 302 300 299 300 300 300 300 300 299 298 298 297 296 295 293 293 293 294 295 296 296 296 295 295 294 293 293 293 293 293 292 292 292 292 292 292 292 292 292 291 291 291 291 292 292 292 292 292 292 292 292 292 292 292 292 292
303 303 303 303 303 304 304 304 304 303 303 304 304 304 304 306 307 308 309 310 311 309 307 307 306 304 303 302 301 298 296 296 297 297 298 298 298 298 297 296 295 294 294 294 294 294 295 295 296 295 295 295 294 294 294 294 293 293 293 293 292 292 292 292 292 292 291 291 291 291 291 291 291 291 291 291 291 292 292 292 292 292 292 292 292
303 303 303 303 303 303 304 303 304 304 304 304 305 304 305 306 308 309 309 310 310 309 307 306 305 303 302 302 300 296 295 296 297 297 297 297 296 295 295 294 294 294 294 295 295 295 295 295 295 295 294 294 294 294 294 294 293 293 293 292 292 291 291 291 291 291 291 291 290 290 290 290 290 290 290 290 291 291 291 291 292 292 292 292 292
303 303 303 303 303 304 304 304 304 304 304 305 305 305 306 307 308 309 309 309 309 308 306 306 304 303 302 301 298 295 295 296 296 295 295 295 295 295 295 295 295 295 295 295 295 294 293 293 294 294 294 293 293 293 293 292 292 292 292 291 291 291 291 290 290 290 290 290 289 290 290 290 290 290 290 290 290 290 290 291 291 291 291 291 292
303 303 303 303 303 304 304 304 304 304 304 305 305 306 307 308 308 308 308 308 308 308 306 305 305 304 302 299 295 293 294 295 294 294 295 295 295 295 295 295 295 295 294 293 293 292 292 293 293 293 293 293 292 292 292 292 292 291 291 291 291 291 290 290 289 289 289 289 289 290 290 290 290 290 290 290 290 290 290 290 290 290 290 290 291
302 303 303 303 303 303 303 304 304 304 304 304 305 306 308 308 308 308 308 308 308 308 307 306 305 304 302 299 296 294 293 293 294 295 295 295 295 295 295 294 293 292 292 292 292 292 293 293 293 292 292 292 292 292 291 291 291 291 291 291 291 290 290 290 290 290 290 290 290 290 290 290 290 290 289 289 289 290 290 289 289 290 290 290 290
302 303 303 303 303 303 303 303 303 303 304 304 304 305 307 307 307 307 307 307 307 307 307 306 305 303 301 299 297 295 294 294 295 296 295 294 294 293 292 292 291 291 292 292 293 293 293 293 292 292 292 292 291 291 291 291 291 290 290 290 290 290 290 290 290 290 290 290 290 290 289 289 289 289 289 289 289 289 289 289 289 289 289 290 290
302 303 303 303 303 303 303 303 303 303 304 304 304 305 305 306 306 306 306 306 306 306 306 305 303 302 301 298 296 295 295 296 295 294 293 292 291 290 291 292 292 292 292 292 292 292 292 292 292 292 291 291 291 291 291 290 290 290 290 290 290 289 290 289 289 289 289 289 289 289 289 289 289 289 289 289 289 289 288 288 289 289 289 289 289
301 302 302 303 303 303 303 303 304 304 304 303 304 304 304 303 302 302 303 304 304 304 303 302 301 300 300 298 296 296 295 294 293 292 291 290 290 291 292 292 292 292 292 292 292 292 292 292 291 291 291 291 290 290 290 290 289 289 289 289 289 289 289 289 289 289 289 289 288 288 289 289 288 289 288 288 288 288 288 288 288 289 289 289 289
299 300 301 302 303 303 303 304 305 304 303 303 303 303 303 301 298 297 298 300 301 301 300 300 299 299 298 297 296 294 293 292 291 292 292 292 292 292 292 292 292 292 292 292 292 292 292 291 291 291 290 290 290 290 289 289 289 289 289 289 289 288 288 288 288 288 288 288 288 288 288 288 288 288 288 288 288 288 288 288 288 288 288 289 289
299 299 299 301 302 303 304 304 305 304 303 303 302 301 301 300 298 296 295 295 296 296 296 297 297 296 295 294 293 293 292 292 292 292 293 293 292 293 293 293 293 293 293 292 292 292 292 291 291 291 290 290 290 289 289 289 289 289 289 289 288 288 288 287 287 287 287 287 287 287 288 288 288 288 288 288 288 288 288 288 288 288 288 289 289
299 299 300 300 301 302 304 304 304 303 302 301 301 300 298 297 296 295 294 293 293 292 292 292 293 293 292 292 293 293 293 293 293 293 293 293 293 293 293 293 293 293 293 292 292 292 291 291 291 290 290 290 290 289 289 289 289 289 288 288 288 288 287 287 287 287 287 287 287 287 287 287 287 288 287 288 288 288 288 288 288 288 288 288 289
298 299 299 300 300 302 303 303 303 302 301 299 298 297 296 295 294 293 293 292 291 291 290 290 290 291 292 292 293 294 294 293 293 293 293 293 294 294 294 294 293 293 292 292 292 291 291 290 290 290 290 290 289 289 289 289 288 288 288 288 287 287 287 287 287 287 287 287 287 287 287 287 287 287 287 287 287 288 288 288 288 288 288 288 288
297 298 299 300 301 302 303 302 301 300 298 296 295 295 293 293 292 292 292 292 291 290 290 290 290 291 291 292 293 294 294 293 293 293 293 294 294 294 294 294 293 292 291 291 291 291 291 290 290 290 289 289 289 289 289 288 288 288 288 287 287 287 287 286 287 286 286 287 287 287 287 287 287 287 287 287 287 287 287 288 288 288 288 288 288
298 298 299 300 301 302 301 299 298 296 295 294 293 293 292 292 292 291 291 291 291 290 290 290 290 291 291 292 293 293 293 293 293 293 293 293 293 293 293 293 292 291 291 291 291 291 290 290 290 289 289 289 289 289 289 288 288 288 287 287 287 286 286 286 286 286 286 286 287 287 287 287 287 287 287 287 287 287 287 287 288 288 288 288 288
299 299 300 301 300 300 299 297 296 295 294 293 292 292 292 292 291 291 291 291 290 290 290 290 291 291 292 292 292 292 293 293 293 293 293 293 293 293 293 292 291 291 291 291 291 290 290 290 289 289 288 289 289 288 288 288 288 287 287 286 286 286 286 286 286 286 286 286 286 286 286 286 287 287 287 287 287 287 287 287 287 288 288 288 288
298 299 299 299 297 296 296 295 294 294 293 293 293 293 293 293 292 292 292 291 291 291 291 291 291 292 292 292 292 293 293 293 294 294 294 294 294 293 292 291 291 291 291 290 290 290 290 289 289 288 288 288 288 288 288 288 287 287 286 286 286 286 286 286 286 286 286 286 286 286 286 286 286 286 287 287 287 287 287 287 287 288 288 288 288
295 295 296 296 295 294 294 294 294 294 294 294 294 295 294 294 293 293 293 293 293 293 292 292 293 293 293 293 293 293 294 294 294 294 294 294 293 292 292 291 291 290 290 290 290 290 289 289 288 288 288 288 288 288 288 287 287 286 286 286 286 286 286 286 286 286 286 286 286 286 286 286 286 286 287 287 287 287 287 287 288 288 288 288 288
294 294 294 294 294 294 295 295 295 295 295 295 295 295 295 295 295 295 295 295 295 294 294 294 294 294 294 293 293 294 294 294 294 293 293 293 292 291 291 291 290 290 290 290 290 289 289 288 288 288 288 288 288 288 288 287 287 286 286 286 286 286 286 286 286 286 286 286 286 286 286 287 287 287 287 287 287 287 288 288 288 288 288 289 289
294 294 294 294 294 294 295 295 295 295 295 296 296 296 296 296 296 296 296 296 296 295 295 294 294 294 294 294 294 294 294 294 293 293 292 292 291 291 291 290 290 290 289 289 289 289 288 288 288 288 288 288 288 288 287 287 286 286 286 286 286 286 286 286 286 286 286 286 286 287 287 287 287 287 288 288 288 288 288 288 289 289 289 289 290
295 295 295 295 295 295 295 295 296 296 296 296 297 296 297 297 297 297 296 296 296 296 295 295 294 294 294 294 294 293 293 293 293 292 292 292 291 291 290 290 290 289 289 289 289 289 288 288 288 288 288 288 288 288 287 286 286 285 285 285 286 287 287 287 287 287 287 287 287 287 287 288 288 288 288 288 289 289 289 289 289 289 290 290 290
295 296 295 295 295 295 296 296 296 296 296 296 296 296 296 296 296 296 296 296 295 295 294 294 293 293 293 293 293 292 292 292 292 291 291 291 290 290 290 289 289 289 289 289 288 288 288 288 288 288 288 288 288 288 287 286 285 284 285 285 287 287 288 287 287 288 287 287 287 288 288 288 288 288 288 289 289 289 289 290 290 290 290 291 291
296 296 295 295 295 295 295 295 295 295 295 295 295 295 295 295 295 295 295 295 294 294 293 293 293 292 292 292 292 291 291 291 291 290 290 289 289 289 289 288 288 288 288 288 288 288 288 288 288 288 289 289 288 288 287 286 284 284 285 287 289 289 289 288 288 288 288 288 288 288 288 288 288 288 289 289 289 290 290 290 290 291 291 291 291
295 295 295 295 295 295 294 294 294 294 294 294 294 294 294 294 294 294 293 293 293 293 292 292 291 291 291 291 291 291 291 290 290 289 289 288 288 288 288 288 288 288 288 288 288 288 288 288 289 289 289 289 288 288 288 287 285 284 285 288 290 290 289 289 289 288 288 289 289 289 289 289 289 289 289 289 290 290 290 290 290 291 291 291 291
295 294 294 294 294 294 294 294 293 293 293 293 293 293 293 293 292 292 292 292 291 291 291 290 290 290 290 290 290 290 289 289 289 288 288 288 288 287 287 287 287 288 288 288 288 288 288 289 289 289 289 289 288 288 288 286 284 283 285 288 290 290 290 290 289 289 289 289 289 289 289 289 289 289 289 290 290 290 290 290 290 290 291 291 291
294 294 294 293 293 293 293 293 292 292 292 291 291 291 291 291 290 290 290 290 289 289 289 289 289 288 288 288 288 289 289 288 288 287 287 287 286 286 286 286 287 287 287 287 287 288 289 289 289 289 289 288 288 288 287 286 284 284 284 287 290 291 291 290 290 289 289 289 289 289 289 289 289 289 290 290 290 290 290 290 290 290 291 290 290
292 293 293 292 292 292 292 291 291 290 290 290 290 289 289 289 289 289 289 288 288 288 287 287 287 287 287 287 287 287 287 287 286 286 286 286 285 284 284 285 286 286 287 287 288 288 289 289 289 289 289 288 288 288 286 285 284 284 284 286 289 291 291 291 290 289 289 289 289 289 289 289 289 289 290 290 290 290 290 290 290 290 291 290 290
291 291 291 291 291 290 290 290 289 289 289 289 288 288 288 288 288 287 287 287 287 286 286 286 286 286 286 286 286 285 286 286 285 285 285 284 283 284 284 285 285 285 286 287 288 288 288 289 289 289 288 288 288 286 285 285 285 284 284 286 289 290 291 291 291 290 289 289 289 289 289 289 289 289 289 290 290 290 290 290 290 290 290 290 290
Wind_Speed
24 24 21 19 16 15 16 16 17 17 16 19 22 19 17 16 15 14 13 12 11 10 9 9 8 8 9 10 10 9 8 9 10 9 9 9 8 8 7 8 8 6 5 5 4 3 4 2 1 0 2 4 6 6 3 3 2 3 3 1 2 2 3 4 3 7 12 14 15 17 16 16 16 15 17 19 18 18 17 16 16 16 17 17 17
24 24 21 22 20 18 18 16 16 17 17 20 21 20 19 17 16 15 15 13 12 11 10 10 10 10 10 11 12 12 11 10 11 11 10 10 9 9 9 9 10 9 7 7 6 5 5 4 4 3 1 1 4 4 3 3 3 3 4 2 2 3 3 5 6 7 11 14 14 13 13 13 15 16 17 18 19 19 19 18 17 17 18 18 17
24 22 20 21 20 20 20 18 19 19 18 19 19 19 20 18 17 16 16 15 14 13 13 12 12 12 12 12 13 14 13 12 12 12 12 12 11 11 12 11 11 12 11 10 9 7 7 7 6 5 4 2 2 3 2 2 1 0 1 1 2 3 3 4 5 6 9 12 13 13 15 16 17 17 17 18 18 19 19 19 18 18 18 18 18
18 18 17 19 19 19 17 15 15 16 17 19 19 18 18 19 19 18 17 17 15 13 14 14 14 13 14 15 15 15 15 16 15 15 14 14 14 14 14 14 13 13 14 13 12 10 10 9 8 7 6 4 2 1 1 2 2 3 3 2 2 3 4 4 6 7 8 12 15 16 17 17 18 18 17 18 17 17 18 18 18 18 18 18 19
14 14 13 15 15 13 12 11 11 12 15 17 18 17 17 17 17 17 17 17 15 13 13 13 13 13 14 16 16 16 17 18 18 19 18 17 17 17 17 17 16 15 16 15 13 13 13 11 8 8 8 6 4 3 4 4 5 4 4 4 4 5 6 6 7 7 8 12 16 17 17 18 19 18 17 18 20 19 19 19 19 19 18 18 17
14 11 10 10 9 7 7 8 9 10 12 13 14 14 15 15 15 15 15 15 14 14 15 15 13 11 12 13 14 15 17 20 21 21 21 20 20 20 20 21 19 16 17 16 13 13 14 11 9 9 9 7 6 7 7 7 7 6 5 5 6 6 7 7 7 8 9 11 14 16 17 17 18 19 18 18 20 21 20 19 19 18 18 18 17
13 12 10 10 10 8 8 7 7 7 8 8 9 10 11 13 14 16 15 14 14 15 17 17 15 13 13 13 13 13 16 21 22 21 21 21 21 21 22 22 21 19 18 17 15 14 13 12 11 10 10 9 9 9 10 9 8 7 7 7 8 8 8 9 9 9 9 11 13 14 16 17 17 18 17 17 18 19 20 21 21 20 20 22 22
13 13 13 12 11 10 10 9 8 7 7 7 7 7 8 11 13 15 15 16 17 18 19 19 19 18 18 17 17 17 16 18 21 22 22 22 22 23 23 24 22 20 20 19 17 16 15 13 12 12 12 12 11 11 11 10 8 8 10 10 10 10 10 10 10 10 11 13 15 15 17 18 18 18 19 18 17 18 19 21 22 22 22 22 21
12 12 13 12 10 9 8 7 7 7 6 5 5 6 7 9 11 12 13 14 16 17 18 19 20 21 20 19 19 20 20 19 20 21 23 23 23 23 24 25 24 22 21 21 19 18 17 15 14 14 13 13 13 12 12 10 9 11 11 10 10 10 10 10 10 11 13 15 17 18 18 19 19 19 19 17 17 19 21 22 23 24 25 25 23
13 12 11 10 9 9 8 7 7 7 5 4 5 5 6 7 8 10 9 9 10 11 12 15 18 20 21 21 21 22 22 23 22 21 22 23 24 24 23 23 25 24 23 22 20 19 18 17 17 15 14 14 14 13 13 12 12 12 10 9 9 8 8 9 10 11 13 15 16 17 17 18 20 18 17 19 20 22 23 22 23 24 25 25 23
11 12 11 8 8 8 8 7 7 6 5 5 4 4 4 5 7 9 9 9 10 10 12 14 16 18 20 21 22 23 23 24 24 23 22 22 24 25 24 23 25 26 24 23 22 20 19 18 17 16 15 15 15 14 13 13 14 13 10 8 7 7 8 9 11 12 13 15 17 17 17 19 21 20 20 23 22 21 21 23 24 23 21 17 17
7 8 8 6 6 8 8 6 5 5 6 5 3 2 2 2 2 5 7 7 8 10 13 15 16 16 17 18 19 20 20 21 22 23 24 24 24 26 25 23 25 27 26 24 23 21 19 18 16 15 15 15 15 14 14 14 15 13 10 8 8 8 8 9 11 13 15 16 19 20 20 21 22 23 23 22 21 21 24 27 25 23 20 18 16
6 6 6 5 5 6 7 5 4 5 6 4 2 1 1 1 2 3 5 5 5 6 8 11 12 13 15 16 16 16 17 17 18 20 21 23 24 25 25 24 26 28 26 24 23 21 19 17 16 15 14 14 14 14 14 14 13 13 12 11 10 9 9 9 11 13 14 17 20 22 23 23 24 24 23 22 23 25 27 27 25 23 22 22 22
7 6 5 4 4 5 5 4 4 4 5 4 2 1 2 2 3 4 5 6 6 7 8 9 10 11 13 13 13 14 15 16 16 16 17 19 21 23 23 23 26 26 23 21 20 19 17 17 17 16 13 12 12 12 11 12 13 13 13 12 11 10 11 12 14 15 16 17 20 23 23 22 23 25 25 24 26 27 27 27 26 25 24 26 28
5 7 6 4 5 5 5 6 6 4 4 3 2 2 2 3 4 5 6 7 8 9 10 11 11 12 13 14 14 15 15 15 15 16 16 16 17 18 20 21 23 22 20 19 19 17 16 16 16 14 11 10 9 9 10 11 13 13 12 11 12 12 14 16 17 18 17 17 18 21 21 21 21 22 22 23 25 26 26 26 25 25 28 30 30
4 4 6 6 5 4 5 6 7 6 5 4 4 4 4 5 5 6 6 8 8 9 11 12 13 14 14 14 15 16 15 15 15 15 14 14 15 18 20 20 20 20 19 18 18 17 16 15 14 12 10 10 10 10 11 13 14 14 13 13 14 15 16 17 16 15 15 15 17 18 19 19 19 19 19 20 21 22 23 25 25 27 29 28 26
6 5 6 7 7 6 5 5 6 6 6 6 6 6 6 6 6 6 8 9 10 11 12 12 13 14 15 15 15 16 16 15 14 14 13 13 16 19 20 19 19 19 17 16 16 16 14 11 9 8 10 11 10 11 12 13 14 14 14 15 15 15 15 14 14 13 14 16 17 18 19 20 20 21 21 21 22 23 24 25 24 24 23 20 19
8 7 7 7 6 6 5 4 5 6 7 7 8 8 7 8 8 8 9 11 12 13 14 14 14 14 15 15 15 14 14 13 13 12 12 14 18 19 19 19 18 17 15 13 12 10 8 6 6 8 11 11 11 11 12 13 14 14 14 14 14 15 16 16 17 18 19 20 21 22 23 24 25 26 27 28 28 28 28 28 26 24 21 18 17
10 8 6 5 5 5 4 5 6 6 7 8 9 9 10 11 11 10 11 12 13 14 15 16 15 14 14 13 12 11 11 11 11 12 13 16 18 18 18 18 17 14 12 10 7 6 6 7 8 10 11 11 11 12 13 13 12 12 13 14 16 18 19 19 20 21 22 22 22 22 22 22 22 23 23 25 25 24 24 25 24 24 23 21 19
14 13 11 10 9 9 9 9 10 10 11 13 13 14 14 13 12 12 11 12 14 15 14 12 11 9 9 9 9 9 9 11 12 13 16 17 17 16 16 16 14 12 11 10 9 7 6 6 6 6 6 7 9 11 10 10 11 12 14 16 18 19 18 18 18 18 19 20 20 20 20 19 18 18 18 19 19 18 18 19 21 22 23 23 22
15 15 15 14 13 13 12 12 13 13 14 14 15 15 14 13 12 11 11 12 14 13 9 7 6 6 6 6 7 8 9 12 15 16 17 17 17 15 14 13 12 13 13 13 12 8 3 2 2 3 5 7 8 8 9 11 13 15 16 16 16 16 16 16 17 17 18 20 21 20 19 18 17 17 17 17 17 16 16 17 18 20 22 23 23
16 16 16 16 15 15 15 15 15 15 14 14 14 14 13 12 13 12 12 13 12 8 6 7 6 6 6 6 7 9 12 14 17 18 18 16 15 15 14 12 12 12 12 10 8 5 1 2 2 4 6 6 7 9 12 14 15 14 13 12 13 14 14 15 16 18 19 21 22 21 20 19 19 19 18 18 18 17 17 18 18 19 21 22 22
15 16 17 17 16 15 14 14 14 14 14 14 15 15 15 15 15 14 13 12 9 8 8 8 8 7 7 7 8 12 15 17 18 18 18 16 15 13 12 11 10 8 6 4 2 2 1 2 2 3 6 7 10 13 14 13 12 11 10 10 11 12 14 15 17 19 20 21 21 21 21 20 20 20 20 20 20 20 20 20 20 20 21 22 23
15 15 17 18 19 18 18 18 18 17 17 16 16 17 18 18 18 16 14 12 11 11 10 9 8 8 9 10 11 14 17 18 18 17 17 16 15 12 9 7 5 4 3 2 2 3 3 3 4 5 8 11 13 13 11 9 9 9 8 10 11 12 14 16 17 19 20 21 21 21 20 19 20 20 21 21 22 22 23 23 23 23 23 24 24
15 16 18 19 20 21 21 21 21 21 20 20 21 22 22 21 20 17 14 13 13 13 12 10 9 10 11 11 13 16 18 18 17 16 14 13 12 10 7 5 4 3 3 4 4 4 4 5 7 9 11 11 10 9 9 10 11 11 11 11 12 12 13 14 15 17 18 19 19 19 18 18 19 20 21 21 22 22 23 23 23 23 24 25 25
15 16 17 19 20 21 20 20 19 18 18 18 18 20 21 20 18 16 15 14 14 14 14 13 11 12 12 12 15 18 19 18 16 15 13 10 8 7 6 5 5 5 4 4 3 3 5 7 8 8 7 7 7 8 9 9 10 10 10 11 11 12 13 14 15 16 17 18 19 19 20 20 21 22 23 23 22 21 21 21 22 22 22 23 24
17 17 17 17 18 19 19 18 17 16 17 16 12 10 10 11 13 14 14 13 14 15 16 16 15 14 14 15 17 19 19 17 16 13 12 10 9 8 8 6 5 4 2 2 3 5 5 4 4 4 4 6 8 9 9 9 9 9 10 11 13 14 16 17 18 19 20 22 23 24 24 25 25 25 25 24 23 23 23 23 23 23 23 23 23
20 20 20 19 19 19 18 17 15 14 14 12 8 4 6 9 11 12 12 12 14 16 18 17 16 15 16 17 18 19 18 17 15 13 12 11 10 9 7 5 3 1 1 3 4 4 2 2 4 5 6 8 10 11 12 12 12 13 14 16 17 19 20 20 21 22 22 23 24 25 25 25 25 24 24 23 24 24 24 24 24 24 24 23 22
23 24 24 23 22 21 20 19 17 14 10 8 7 7 8 11 12 12 12 13 14 15 16 16 16 15 16 18 19 21 20 18 15 13 11 10 8 6 5 4 3 3 2 2 3 3 4 5 7 8 9 10 11 12 13 14 15 16 17 18 19 20 21 21 22 23 23 24 24 24 25 24 24 24 24 23 24 24 24 24 24 24 24 23 22
24 25 24 25 25 24 22 22 20 17 13 12 11 10 10 11 12 12 11 11 11 10 10 13 15 16 17 17 18 21 21 17 14 12 10 8 7 6 6 7 7 7 6 5 6 6 6 6 8 8 9 10 11 12 13 15 17 18 19 19 20 20 20 20 21 22 23 24 24 25 25 25 25 24 24 23 24 24 24 24 24 24 23 23 22
22 23 24 25 26 26 27 26 22 17 16 16 16 15 14 13 11 9 7 6 7 8 10 13 16 17 17 17 17 18 17 16 14 12 9 8 8 9 9 10 10 9 8 6 6 6 6 6 6 8 9 10 10 12 14 15 17 18 19 19 20 20 20 20 22 23 24 25 25 25 25 25 24 24 24 24 25 25 25 24 23 23 23 23 23
22 22 22 21 21 22 23 22 18 16 17 18 18 18 17 15 12 9 7 6 7 10 13 16 17 16 16 19 20 19 17 15 13 10 9 9 10 11 10 9 7 6 6 5 6 7 7 5 6 8 9 10 11 13 15 17 18 19 20 20 21 22 22 23 24 25 25 25 25 25 25 25 25 25 26 26 25 25 24 23 23 22 23 23 23
28 26 23 21 18 15 13 13 16 19 20 20 20 20 20 19 18 17 15 14 15 16 17 18 19 18 18 20 20 19 17 14 12 10 11 11 11 9 7 4 2 0 1 3 5 6 6 5 6 9 9 11 12 14 16 18 20 20 21 22 23 24 25 26 26 26 26 26 26 26 27 26 26 26 26 26 25 24 23 23 23 22 22 22 22
29 29 28 25 20 15 12 15 20 21 23 24 23 22 21 22 25 26 25 23 21 21 21 20 20 20 20 20 18 17 15 13 13 12 12 11 9 6 4 1 1 2 2 2 4 5 5 5 7 9 10 12 14 15 17 19 20 22 23 24 25 26 27 27 27 27 27 27 26 26 26 26 26 26 25 25 24 24 23 23 22 22 21 21 21
25 26 27 26 22 16 15 20 24 25 26 26 26 25 26 27 29 31 30 28 25 24 24 23 22 21 21 20 18 17 15 15 14 13 11 9 7 5 5 4 3 1 0 0 2 3 4 6 8 10 12 14 15 16 17 19 21 23 24 25 26 26 26 26 26 26 26 26 26 26 26 26 27 26 25 25 24 23 23 23 22 22 22 21 21
25 23 23 24 24 19 16 22 27 28 28 28 27 28 29 30 30 30 30 29 28 26 24 23 22 20 20 19 18 17 17 15 13 11 9 8 6 5 6 7 6 5 5 6 6 6 6 8 10 11 12 14 15 16 17 19 21 23 24 25 26 26 26 26 26 26 27 27 27 27 26 26 26 26 26 25 24 24 24 24 23 23 23 23 22
24 23 21 21 21 19 17 22 25 26 26 28 29 29 28 27 27 28 29 28 28 26 24 22 21 19 18 17 17 16 16 14 12 10 8 6 4 4 6 7 7 8 10 10 9 8 8 9 11 12 14 15 15 16 18 21 23 24 25 26 26 26 27 27 27 27 27 27 27 27 26 26 26 26 25 25 24 24 24 24 24 23 23 23 23
23 22 21 20 21 22 22 23 24 25 26 27 27 29 28 26 25 27 27 27 27 25 23 21 20 18 18 17 16 15 13 11 9 8 6 4 2 2 5 6 9 10 11 10 9 9 9 10 12 13 14 14 15 18 21 23 24 25 25 26 27 27 26 26 27 27 27 26 26 27 26 26 26 26 26 25 25 24 24 24 24 23 22 22 21
19 18 18 20 25 28 30 30 29 29 29 28 26 27 27 26 25 26 26 25 24 22 20 18 17 16 15 14 13 12 9 6 4 3 4 3 2 4 7 9 10 10 10 10 9 9 10 11 12 13 13 14 17 20 22 23 24 24 25 26 26 26 26 26 27 27 27 27 27 27 27 27 27 27 26 25 25 25 25 24 24 23 22 21 21
14 18 22 26 28 30 32 33 32 31 30 29 27 27 26 25 23 23 23 22 20 17 16 15 13 12 12 11 10 8 5 3 6 10 11 11 11 11 11 11 11 10 10 9 9 9 10 11 12 13 13 16 18 21 22 23 24 25 26 25 25 26 26 26 27 27 28 28 28 28 27 27 27 27 26 26 26 26 25 25 25 24 24 23 23
25 25 26 29 31 32 31 30 30 30 30 29 27 25 23 21 20 19 19 18 16 14 13 11 10 9 10 10 7 4 5 9 13 15 14 13 12 12 11 11 11 11 10 10 10 10 11 11 11 12 14 16 18 20 22 23 24 25 27 27 26 26 27 27 27 28 28 28 28 28 28 27 27 26 26 26 26 26 26 25 25 25 24 23 23
32 31 30 30 31 33 32 30 29 30 29 27 24 21 18 17 17 17 16 16 14 14 13 12 10 9 9 8 7 8 12 16 17 15 14 14 12 12 12 11 11 11 10 10 10 11 11 10 10 11 14 16 18 20 22 24 26 27 28 28 27 27 27 28 28 28 28 29 28 28 28 28 27 26 26 26 25 24 24 24 23 23 22 22 22
33 33 33 31 30 30 29 27 27 26 24 21 19 17 15 14 13 13 15 16 16 16 15 15 14 13 12 12 13 15 17 17 16 15 14 12 10 10 10 9 9 10 10 10 11 11 10 9 9 12 14 16 18 20 22 24 26 26 27 28 27 27 27 28 29 29 29 29 29 28 28 27 26 26 25 24 24 23 22 22 21 20 19 19 18
29 29 29 29 27 25 24 23 22 21 20 19 18 18 17 16 14 16 18 19 18 17 16 16 16 17 18 17 16 17 16 14 13 12 10 8 7 7 7 7 8 9 9 10 10 10 9 8 9 12 14 16 18 19 22 25 25 25 26 27 27 27 28 28 29 29 29 28 28 27 26 26 25 24 24 23 22 21 20 19 19 17 16 15 14
28 28 28 27 26 25 24 24 23 22 21 21 22 22 22 21 20 20 21 20 18 17 16 15 16 17 17 16 16 16 15 13 12 11 9 7 7 6 6 6 8 8 9 9 9 10 8 8 10 13 16 18 18 19 23 27 27 25 24 25 25 27 28 29 29 28 27 26 26 25 24 24 24 23 22 21 20 18 17 17 16 15 13 12 11
29 29 29 29 28 27 26 25 24 23 22 22 22 22 22 22 21 21 20 20 19 18 17 16 16 15 15 14 15 15 14 13 12 11 10 8 7 7 7 8 9 8 9 9 9 9 8 9 11 15 16 18 18 19 24 29 29 26 25 24 23 25 27 28 27 27 26 24 23 22 22 23 22 21 20 19 17 15 14 14 13 12 11 10 10
25 24 24 24 25 25 24 25 25 24 23 22 21 20 20 20 20 21 20 20 19 18 17 17 17 16 14 14 14 14 14 14 12 11 9 8 6 7 7 8 10 9 9 9 8 8 8 10 13 15 17 18 17 18 24 30 29 26 25 24 22 23 26 27 27 27 26 23 21 19 20 21 20 19 18 17 15 14 13 12 12 10 9 8 8
24 23 22 22 22 22 22 23 23 22 22 21 20 20 20 20 20 21 21 20 20 19 17 17 17 16 15 14 13 13 14 14 12 10 8 7 6 6 6 8 10 8 8 8 7 7 9 11 14 16 18 17 15 18 25 29 28 26 25 23 21 21 24 26 27 27 26 23 20 18 18 19 19 18 17 15 14 13 12 11 9 7 6 5 4
24 24 23 22 22 22 21 21 21 21 20 21 21 21 21 20 21 21 20 20 20 20 18 16 15 14 13 13 12 11 12 11 10 9 7 6 6 6 7 9 10 8 7 6 7 8 9 12 15 18 18 15 14 19 26 27 26 25 25 23 20 20 22 24 26 27 26 24 21 18 18 18 18 17 16 14 13 12 11 9 8 6 5 5 4
24 23 23 22 22 22 21 21 21 20 19 20 20 20 20 19 19 19 18 18 18 17 16 16 14 13 11 10 10 10 9 9 9 9 7 6 7 8 9 9 8 6 6 6 8 9 10 13 17 18 17 14 16 21 25 25 24 25 25 23 20 19 21 24 25 26 26 25 22 19 18 17 17 17 16 14 12 11 11 9 8 7 7 7 8
24 24 24 23 22 21 20 21 21 20 19 19 19 19 19 19 18 17 16 15 14 14 13 13 13 12 11 9 8 7 7 7 7 7 7 6 8 10 10 9 7 6 6 7 8 10 13 15 17 17 16 15 18 21 23 23 23 24 23 22 20 19 20 22 24 25 26 25 23 20 18 18 17 17 17 15 13 12 11 10 9 8 9 9 10
Wind_Direction
176 179 176 173 180 185 181 177 174 170 167 172 174 167 158 158 163 171 176 178 182 189 194 196 202 204 206 214 219 221 214 198 200 202 198 203 205 206 204 188 193 208 185 175 180 151 143 165 263 18 114 120 140 145 124 104 79 27 22 33 27 360 322 324 299 298 308 313 317 323 331 337 339 340 335 328 325 324 321 316 313 310 307 304 302
172 179 175 171 179 186 185 182 177 168 159 163 166 166 165 161 159 164 172 182 192 198 203 209 214 214 212 217 221 225 227 217 208 209 209 211 215 218 217 202 201 213 207 197 205 204 189 201 234 247 280 71 142 149 112 103 101 60 60 61 22 8 348 331 315 299 300 308 317 323 327 331 326 322 321 320 320 321 320 317 315 312 310 309 307
167 173 172 174 179 180 180 179 180 180 176 173 174 174 175 176 175 172 171 178 191 203 212 218 219 216 216 219 221 224 228 226 220 219 218 217 220 224 224 217 211 216 217 213 214 217 208 201 208 225 246 259 144 128 99 97 115 44 29 39 10 350 342 332 322 312 307 311 316 318 320 320 317 315 317 316 316 316 314 314 313 310 309 310 309
166 166 164 167 167 166 169 169 170 177 185 190 194 193 189 190 193 192 189 188 192 199 206 212 215 217 220 222 222 222 225 226 225 224 224 222 222 224 225 223 218 218 221 219 219 223 220 211 209 221 240 243 188 163 200 210 219 224 236 255 267 291 302 306 316 323 320 315 312 312 317 316 313 315 318 318 317 317 316 315 313 312 310 308 307
156 161 157 152 150 155 168 178 182 191 197 198 200 202 202 202 202 202 204 206 207 207 207 208 210 213 219 223 225 226 229 229 227 226 226 224 222 221 223 224 223 222 224 222 221 225 225 220 214 220 234 235 214 226 240 235 238 243 251 263 264 277 290 294 299 307 313 313 310 309 311 312 311 315 319 321 321 318 315 312 311 313 312 309 307
128 140 147 146 143 142 155 172 191 207 215 211 206 207 213 215 214 214 217 218 219 222 225 225 222 218 220 226 230 233 232 228 226 224 224 224 222 220 220 223 225 224 224 224 224 226 224 219 212 215 224 227 222 230 242 245 253 262 267 273 278 282 289 294 296 298 303 307 308 308 309 312 315 318 322 324 322 321 321 319 315 313 312 312 309
114 122 134 147 155 156 153 156 166 184 203 212 210 211 217 220 221 223 229 233 234 236 236 233 234 242 249 248 243 241 237 231 228 225 224 224 223 223 222 221 223 223 223 223 222 220 214 207 209 217 224 230 230 233 244 252 259 274 283 283 284 287 292 298 300 303 307 308 309 312 313 312 314 317 320 320 317 318 328 332 327 320 316 314 313
116 125 134 141 149 154 158 162 162 166 178 194 204 211 216 222 226 230 238 244 246 247 245 243 250 261 266 260 248 247 250 242 235 234 232 227 222 225 226 222 219 219 218 218 217 214 211 209 215 223 229 234 238 242 248 251 261 288 296 289 288 291 294 298 303 307 312 313 312 313 314 312 311 313 315 318 321 323 329 333 329 323 322 317 313
125 130 136 139 141 142 145 151 153 152 160 176 191 202 209 218 226 233 242 246 249 253 254 254 259 263 265 261 251 248 251 250 245 244 242 235 225 223 227 226 220 216 213 212 212 211 213 217 221 224 231 238 245 250 249 249 270 295 300 292 291 294 294 298 305 312 316 316 314 316 316 313 312 316 318 320 325 324 322 322 320 318 320 318 312
139 142 143 142 145 146 145 148 148 149 158 172 185 201 214 224 230 235 243 250 255 259 260 259 260 261 261 260 255 251 250 251 250 248 247 244 235 226 225 226 222 216 212 208 206 209 213 216 218 220 230 241 246 249 250 255 274 290 293 288 289 291 293 300 308 313 315 312 310 312 312 307 308 313 313 311 314 316 315 320 322 320 320 319 312
143 144 146 147 153 155 151 149 156 164 166 158 162 189 208 221 231 237 245 255 261 260 258 257 257 259 260 260 257 255 254 255 253 250 247 248 245 236 231 228 221 216 212 206 204 206 208 210 212 218 230 241 244 247 253 264 277 285 286 281 278 278 286 296 303 306 305 302 302 304 301 298 301 304 304 307 311 312 312 316 320 320 321 321 313
144 141 146 150 152 150 145 140 142 153 156 151 152 169 174 182 225 245 256 266 268 263 261 259 257 256 256 257 259 261 262 261 259 257 254 254 253 245 237 232 222 215 210 206 205 205 206 210 214 222 232 238 241 247 256 267 278 283 283 277 269 270 278 286 294 299 300 299 297 296 294 294 296 298 300 304 306 306 307 309 311 312 310 308 304
163 158 159 158 147 141 144 143 127 127 139 146 149 159 197 263 286 292 293 295 292 285 278 272 265 259 254 254 259 265 270 270 266 264 263 261 256 247 240 234 222 212 205 202 202 204 208 212 216 221 227 232 238 247 257 266 275 279 277 271 264 263 270 281 291 297 301 300 294 293 295 294 292 294 297 298 298 300 302 303 304 302 298 297 297
187 176 168 168 161 158 165 169 153 138 141 143 144 187 257 274 290 298 298 296 293 291 293 289 280 270 265 263 265 268 271 273 270 269 271 269 260 249 240 228 214 205 201 199 202 206 210 214 218 218 221 228 238 246 255 263 270 270 265 258 256 262 274 287 296 297 299 300 295 295 299 299 296 297 300 299 296 296 296 295 295 294 291 291 294
199 181 184 192 180 183 198 193 186 187 190 197 214 238 257 270 278 282 284 285 285 281 282 285 284 279 273 269 269 270 270 271 270 270 271 271 261 242 225 211 201 196 195 197 198 200 201 204 206 204 207 220 233 242 252 259 261 258 254 253 260 272 280 288 294 295 295 296 295 297 301 303 302 302 301 298 294 291 289 288 287 287 289 291 292
244 194 194 197 193 212 224 201 190 193 200 208 219 228 246 260 266 271 275 277 280 281 280 279 280 282 281 275 268 265 264 265 266 264 264 262 246 223 209 199 192 188 187 190 192 192 192 193 195 202 221 238 247 255 260 262 260 258 261 268 274 279 284 288 292 292 290 288 288 291 295 296 297 296 295 294 291 291 291 289 288 289 291 290 289
254 238 222 212 214 231 236 211 200 205 209 216 229 236 244 253 258 265 273 276 278 280 282 282 280 279 281 281 273 261 254 253 255 255 254 246 227 212 201 192 185 182 179 182 187 190 192 199 211 237 256 258 257 258 257 257 258 262 269 275 277 279 281 283 283 281 280 279 278 279 281 283 285 285 287 288 289 294 298 298 298 298 294 287 284
274 261 248 235 228 230 231 226 228 229 224 225 233 236 241 252 260 263 270 278 279 279 282 287 285 277 273 275 271 258 246 242 243 243 236 224 213 203 193 184 178 175 175 175 181 189 203 223 241 251 254 250 248 249 252 255 261 267 274 277 281 282 284 286 286 286 286 284 282 281 280 281 281 280 281 283 283 287 292 294 296 296 290 283 282
293 291 284 271 259 249 248 250 249 245 237 235 239 245 251 258 259 259 266 275 281 283 284 285 281 273 266 263 256 243 232 227 225 222 214 207 203 196 186 179 173 171 175 177 180 198 222 231 232 236 239 241 247 253 258 263 269 276 284 291 295 297 298 300 300 300 301 300 299 300 300 299 296 292 292 292 291 290 289 290 294 292 284 279 281
289 291 288 283 274 266 264 263 260 257 254 252 253 254 256 257 256 258 266 275 283 287 286 280 270 255 245 240 229 218 213 204 198 200 201 199 196 191 184 180 176 172 170 168 164 172 198 214 220 235 245 251 258 262 267 277 285 292 299 303 305 307 309 312 312 313 314 314 315 316 317 317 314 310 310 312 311 306 298 294 294 291 286 283 279
274 275 275 274 268 261 259 258 257 257 257 256 254 251 249 249 251 257 268 279 285 284 272 249 229 208 199 204 198 191 193 187 180 184 191 192 191 191 186 179 174 169 164 161 159 157 178 227 249 278 278 271 269 275 291 302 305 307 310 311 314 320 323 323 322 322 318 315 314 313 312 312 311 309 310 313 316 318 312 305 299 293 291 289 283
269 271 274 276 273 267 263 261 260 260 261 260 256 251 245 245 247 254 270 279 277 259 223 200 185 169 162 167 172 172 175 178 177 178 181 181 180 183 180 170 165 164 161 160 158 157 201 304 303 286 276 272 280 299 312 314 313 316 320 323 327 330 328 323 320 317 313 311 310 307 303 301 299 300 301 301 303 307 308 307 304 298 294 292 290
270 274 279 283 283 279 275 272 268 266 265 263 261 257 255 254 253 255 264 265 243 202 183 174 160 149 146 150 161 168 169 173 176 176 176 175 171 172 172 167 165 168 167 162 159 169 267 301 272 256 269 284 300 311 315 314 316 322 324 325 326 324 318 314 312 310 309 308 306 302 299 296 294 294 295 296 297 298 299 299 299 296 292 289 288
272 274 279 282 284 284 282 281 280 277 273 270 268 266 263 257 249 246 247 238 208 178 166 164 156 148 146 151 160 167 168 170 172 172 172 172 170 171 174 175 182 197 201 207 214 212 231 270 278 283 295 303 308 312 308 303 308 311 309 314 320 318 315 315 314 312 308 304 299 295 293 294 295 296 298 300 300 299 296 294 293 292 290 288 286
282 278 276 276 276 276 275 274 274 273 271 268 265 263 260 252 242 235 226 212 195 176 165 165 163 156 154 157 164 169 171 170 169 167 169 170 170 173 182 190 193 193 192 201 210 214 232 266 286 294 300 305 309 308 303 303 305 304 305 313 321 325 326 325 324 319 310 303 299 296 297 303 307 307 308 309 306 303 298 295 292 291 290 289 287
296 290 284 278 273 268 266 267 268 268 269 269 266 264 260 248 231 217 204 193 186 177 171 170 170 165 163 169 174 174 173 172 170 170 171 169 163 160 164 168 167 166 178 200 221 260 279 285 292 297 304 317 326 329 329 328 325 320 320 324 327 332 334 333 330 324 316 312 311 308 309 312 311 310 310 309 306 304 302 299 297 295 293 292 289
304 300 295 291 285 274 265 262 264 268 271 272 273 273 259 230 202 192 189 185 181 178 175 174 173 172 173 178 179 176 172 169 168 167 164 158 153 156 161 167 175 184 209 261 299 311 312 316 328 342 359 6 4 3 2 359 353 345 338 335 332 332 332 329 325 321 316 313 311 308 307 308 307 306 306 305 302 301 300 299 298 296 295 294 290
297 294 291 289 289 283 272 263 259 261 264 265 261 239 210 199 191 190 195 199 196 189 182 179 182 186 185 179 173 170 170 171 170 166 162 160 162 165 170 173 176 219 305 323 326 324 342 59 55 43 31 18 8 6 2 356 351 344 336 331 326 323 322 321 317 314 311 309 306 304 304 304 305 305 304 302 300 299 299 297 295 293 293 290 286
288 285 283 281 280 279 275 269 262 253 244 239 232 212 192 189 192 194 199 207 209 202 194 193 196 196 189 181 176 174 171 171 171 167 163 164 167 167 166 157 119 75 65 65 64 79 89 73 54 37 19 5 360 360 356 350 345 339 333 329 325 322 319 317 314 312 311 309 305 303 303 302 302 302 302 300 299 298 298 296 293 292 290 286 281
283 279 278 277 274 273 271 268 263 253 235 218 208 195 179 175 183 189 193 200 203 203 205 206 201 192 182 179 181 178 171 166 167 166 161 161 160 153 147 136 111 91 88 96 94 83 69 58 49 31 13 7 6 2 353 346 341 338 334 331 328 324 320 316 313 312 311 309 305 303 302 300 299 299 298 297 296 297 297 295 292 290 286 282 279
285 277 272 269 268 267 266 264 258 242 220 203 191 179 166 161 166 175 184 198 205 201 197 193 191 188 180 169 166 168 166 161 160 160 159 158 154 149 144 133 116 99 91 95 91 68 51 50 47 30 19 18 16 5 354 348 343 339 336 332 328 325 320 316 315 314 312 308 305 302 300 298 297 297 296 295 295 296 294 292 290 285 281 278 276
285 279 274 268 262 261 260 253 235 208 190 182 178 173 163 150 140 139 151 176 187 182 174 169 168 174 177 169 162 158 155 153 152 155 158 154 150 147 142 134 124 107 87 76 60 50 52 58 49 34 26 21 13 1 351 346 342 338 335 331 327 325 321 319 318 316 312 308 305 302 300 299 298 297 297 296 295 293 291 290 287 284 280 277 273
274 273 274 270 264 263 253 221 195 185 179 175 172 170 163 149 133 124 128 144 154 156 158 159 159 161 165 165 160 152 147 146 149 150 148 144 142 143 142 143 161 171 40 20 17 33 53 59 43 33 25 16 5 353 345 342 339 336 334 329 325 323 321 320 319 316 312 309 306 303 301 300 298 297 296 294 293 290 288 287 286 283 280 276 273
266 263 262 261 261 261 240 205 190 185 181 175 170 164 159 152 142 134 129 131 134 136 140 145 150 152 150 146 142 138 138 141 143 143 142 139 137 135 132 148 258 272 276 303 343 17 45 50 38 29 17 6 357 348 343 341 337 334 331 328 324 322 320 319 317 315 312 309 306 303 300 298 296 293 292 291 290 287 285 284 283 280 277 274 273
261 258 254 250 251 253 232 203 189 181 175 172 167 161 155 151 147 142 138 133 129 127 129 134 138 139 137 133 129 128 132 137 141 142 141 138 130 116 95 83 82 93 135 23 23 47 61 48 31 21 9 359 353 349 345 341 337 333 329 325 321 319 318 318 316 314 311 308 304 301 299 297 294 292 291 289 288 286 283 282 281 278 276 275 273
254 253 250 243 241 241 222 193 182 178 172 167 162 157 154 150 145 141 137 134 132 130 130 133 135 133 132 132 130 131 136 144 150 151 146 133 116 93 67 58 61 74 86 88 85 81 64 39 23 15 8 359 352 347 342 338 334 330 325 321 319 318 317 317 315 313 310 308 305 303 300 297 295 293 291 289 286 285 283 282 280 278 276 275 273
242 239 242 237 226 216 197 178 173 170 163 157 153 149 146 142 138 135 134 133 133 133 134 137 138 138 140 143 144 145 150 156 162 162 155 140 115 72 44 44 64 83 87 82 74 62 47 32 20 13 7 358 348 339 334 332 329 326 323 321 320 319 317 315 313 312 309 307 306 305 302 299 297 295 292 289 287 285 284 282 281 279 276 275 272
235 229 229 218 198 183 169 159 155 151 146 143 143 140 137 135 134 133 134 135 136 137 140 144 147 149 151 154 157 160 165 173 183 190 193 201 225 13 41 71 91 91 81 69 57 48 43 32 19 10 3 352 342 335 333 332 330 327 325 324 322 321 319 317 315 314 312 309 307 306 304 301 299 297 294 290 288 286 285 284 282 279 277 275 271
222 212 198 181 168 159 152 146 143 140 138 137 135 134 133 133 134 135 136 137 139 141 144 149 153 155 157 161 166 171 178 191 204 196 184 176 118 75 87 100 98 84 72 63 54 45 37 26 15 8 360 348 339 335 335 334 333 331 330 328 324 323 321 319 317 316 314 311 309 308 306 303 301 299 296 292 289 288 287 286 283 281 279 276 272
154 158 155 150 144 140 139 138 137 136 134 133 131 130 131 134 136 136 136 136 138 142 148 153 156 159 164 169 172 176 181 142 102 100 108 110 100 93 98 99 88 73 65 59 48 36 27 22 15 6 354 343 338 338 338 338 336 334 332 329 326 324 323 322 320 317 315 313 311 309 307 306 304 302 298 295 293 291 289 287 285 283 280 278 276
97 109 119 126 126 124 123 124 124 125 125 126 128 133 139 142 140 136 133 134 137 142 150 159 166 172 179 185 185 175 144 124 112 104 102 103 102 100 97 90 79 70 62 53 43 33 27 24 15 360 348 343 342 343 343 341 339 337 335 332 330 328 327 325 323 320 318 316 314 312 311 309 307 304 300 297 296 294 290 287 286 284 282 281 279
83 87 92 100 106 110 111 112 114 117 121 126 131 134 136 135 132 131 131 135 140 144 148 153 157 159 163 168 160 139 128 122 114 106 104 106 105 101 93 85 79 72 61 48 37 29 26 25 13 356 348 347 346 344 343 343 342 340 336 334 332 331 330 328 327 325 323 321 320 319 317 316 313 310 306 303 301 298 294 290 288 286 285 285 282
83 86 88 90 94 99 104 108 112 117 123 126 124 120 119 124 135 144 143 139 138 137 134 132 129 124 121 123 127 127 125 120 115 113 111 108 103 93 81 79 87 83 65 46 31 23 23 25 13 358 352 350 348 346 346 345 344 340 337 335 334 334 334 333 332 331 329 327 326 325 323 322 319 316 313 311 309 305 301 298 295 292 290 289 286
88 89 91 94 97 100 105 110 114 117 119 117 111 109 112 120 132 142 142 138 136 133 131 127 122 116 115 117 118 117 116 113 111 108 101 94 94 84 65 74 101 99 73 51 30 15 19 28 16 1 356 354 353 353 352 351 348 343 338 337 337 339 340 339 337 336 334 331 329 328 327 327 325 322 320 319 317 313 310 307 304 302 299 296 289
88 89 89 91 94 97 102 107 111 111 111 109 106 105 107 111 119 128 134 137 138 136 133 129 123 117 115 113 109 106 103 98 95 95 93 95 100 76 51 77 110 105 79 59 30 10 21 35 17 359 356 356 356 357 356 355 354 351 346 344 345 347 348 347 345 344 343 339 336 335 334 332 331 329 328 328 327 324 321 318 315 312 307 301 294
82 83 84 85 87 89 92 96 100 103 103 104 103 102 101 103 109 117 123 126 126 123 118 115 112 110 108 106 104 101 97 93 95 99 101 102 93 62 53 89 112 104 82 62 32 16 32 37 12 357 354 355 355 356 356 356 357 357 355 355 356 357 357 355 354 354 353 349 345 344 343 340 339 339 340 341 341 339 335 330 326 321 315 307 299
79 79 81 84 87 89 90 91 93 93 94 96 98 98 97 97 100 104 108 111 111 110 107 105 103 103 104 106 105 101 95 92 95 98 96 90 73 49 58 100 118 106 84 65 40 30 40 31 12 1 358 356 356 355 353 354 357 359 359 1 3 3 2 1 0 360 358 354 352 352 350 348 348 350 352 355 354 350 348 344 338 332 327 321 313
82 83 83 86 88 88 89 90 91 90 91 93 94 93 93 93 93 94 96 97 99 100 101 100 99 100 103 104 105 103 97 91 85 83 80 71 52 41 67 107 116 99 76 65 57 51 41 25 13 8 4 1 357 352 350 353 357 0 1 2 3 2 2 4 4 4 2 359 357 357 357 357 357 359 1 4 4 1 359 359 356 353 351 348 343
86 86 87 87 87 88 89 89 89 89 91 92 91 89 88 88 87 88 89 91 91 93 95 97 96 97 100 101 101 104 103 96 84 74 68 54 40 49 85 107 107 88 69 69 73 64 43 23 15 12 9 4 355 349 350 355 0 2 2 4 3 1 3 7 8 8 6 3 1 2 2 3 5 6 7 10 13 12 12 15 20 29 39 43 59
86 87 87 86 86 88 89 90 90 90 91 91 88 86 85 84 84 84 86 88 88 87 88 91 91 91 93 95 95 98 104 101 87 73 61 50 49 63 81 90 87 75 72 81 79 63 39 21 15 15 14 6 354 350 353 359 4 4 5 6 4 3 7 10 11 11 10 8 6 7 6 7 10 13 13 17 22 25 28 34 42 55 68 76 88
86 86 86 85 85 86 87 88 87 87 89 89 87 85 84 83 82 81 81 82 82 82 82 83 84 82 82 83 82 85 96 104 91 71 55 49 59 66 66 59 50 59 81 86 69 44 28 19 18 19 16 3 352 352 357 4 8 8 8 9 8 8 12 14 12 12 13 12 11 12 11 11 14 18 20 23 29 34 40 47 54 65 78 86 93